SAS725 EGLL-EDDM

Flight info

Callsign SAS725
Flight time 1h 21m
Altitude 39000
Route DET L6 DVR UL9 KONAN UL607 SPI DCT MOVUM T109 HAREM T104 ROKIL ROKIL1B
Aircraft A343/H-SDE2E3FGHIJ4J5M1RWXY/LB1D1

Departure

Time 2026-05-05 22:06
Airport London Heathrow Airport (EGLL)

Arrival

Time 2026-05-05 23:28
Airport Munich Airport (EDDM)
Time Latitude Longitude Altitude Speed Heading
2026-05-05 21:56 51.47069 -0.47869 90 ft 0 kts 359°
2026-05-05 21:59 51.47104 -0.47870 92 ft 13 kts 360°
2026-05-05 21:59 51.47218 -0.47870 90 ft 20 kts 359°
2026-05-05 21:59 51.47375 -0.47871 90 ft 25 kts
2026-05-05 22:00 51.47530 -0.47872 94 ft 14 kts 358°
2026-05-05 22:00 51.47582 -0.47970 94 ft 13 kts 271°
2026-05-05 22:00 51.47580 -0.48190 94 ft 27 kts 269°
2026-05-05 22:00 51.47578 -0.48555 93 ft 36 kts 270°
2026-05-05 22:01 51.47576 -0.48859 90 ft 0 kts 269°
2026-05-05 22:01 51.47576 -0.48874 90 ft 6 kts 269°
2026-05-05 22:01 51.47586 -0.48980 93 ft 7 kts 296°
2026-05-05 22:01 51.47587 -0.48984 95 ft 1 kts 298°
2026-05-05 22:02 51.47589 -0.48989 95 ft 2 kts 298°
2026-05-05 22:02 51.47596 -0.49000 95 ft 0 kts 315°
2026-05-05 22:02 51.47596 -0.49001 94 ft 1 kts 315°
2026-05-05 22:02 51.47599 -0.49005 95 ft 0 kts 315°
2026-05-05 22:04 51.47601 -0.49008 95 ft 1 kts 315°
2026-05-05 22:04 51.47630 -0.49031 93 ft 8 kts 343°
2026-05-05 22:04 51.47708 -0.49033 90 ft 14 kts 18°
2026-05-05 22:04 51.47748 -0.48896 90 ft 15 kts 86°
2026-05-05 22:05 51.47750 -0.48806 90 ft 11 kts 89°
2026-05-05 22:05 51.47751 -0.48692 90 ft 12 kts 89°
2026-05-05 22:05 51.47751 -0.48568 92 ft 10 kts 90°
2026-05-05 22:05 51.47751 -0.48347 94 ft 44 kts 90°
2026-05-05 22:06 51.47752 -0.47521 89 ft 102 kts 90°
2026-05-05 22:06 51.47757 -0.46117 94 ft 148 kts 89°
2026-05-05 22:06 51.47767 -0.44267 94 ft 183 kts 90°
2026-05-05 22:06 51.47702 -0.42204 744 ft 179 kts 96°
2026-05-05 22:07 51.47553 -0.40318 1723 ft 167 kts 99°
2026-05-05 22:07 51.47168 -0.38463 2085 ft 194 kts 125°
2026-05-05 22:07 51.46179 -0.36831 2471 ft 215 kts 134°
2026-05-05 22:07 51.45200 -0.34843 2955 ft 236 kts 122°
2026-05-05 22:08 51.44347 -0.32549 3802 ft 243 kts 118°
2026-05-05 22:08 51.43533 -0.30127 4625 ft 252 kts 116°
2026-05-05 22:08 51.42845 -0.27497 5380 ft 261 kts 105°
2026-05-05 22:08 51.42382 -0.24566 5854 ft 283 kts 102°
2026-05-05 22:09 51.41936 -0.21321 6008 ft 315 kts 101°
2026-05-05 22:09 51.41615 -0.18963 5998 ft 338 kts 102°
2026-05-05 22:09 51.40927 -0.13930 6968 ft 340 kts 102°
2026-05-05 22:09 51.40403 -0.10347 8519 ft 321 kts 103°
2026-05-05 22:10 51.39893 -0.07026 10051 ft 293 kts 103°
2026-05-05 22:10 51.39582 -0.04944 11008 ft 276 kts 101°
2026-05-05 22:10 51.39201 -0.02078 12406 ft 253 kts 101°
2026-05-05 22:10 51.38849 0.00607 13521 ft 242 kts 102°
2026-05-05 22:11 51.38500 0.03217 14319 ft 238 kts 102°
2026-05-05 22:11 51.38147 0.05796 15001 ft 237 kts 102°
2026-05-05 22:11 51.37784 0.08406 15496 ft 246 kts 102°
2026-05-05 22:11 51.37401 0.11139 15927 ft 257 kts 103°
2026-05-05 22:12 51.36989 0.13976 16392 ft 267 kts 103°
2026-05-05 22:12 51.36558 0.16928 16835 ft 277 kts 103°
2026-05-05 22:12 51.36114 0.19995 17261 ft 288 kts 103°
2026-05-05 22:12 51.35659 0.23162 17674 ft 298 kts 103°
2026-05-05 22:13 51.35182 0.26453 18074 ft 308 kts 103°
2026-05-05 22:13 51.34690 0.29839 18416 ft 319 kts 103°
2026-05-05 22:13 51.34184 0.33318 18712 ft 330 kts 103°
2026-05-05 22:13 51.33650 0.36992 19031 ft 341 kts 103°
2026-05-05 22:14 51.33104 0.40733 19346 ft 351 kts 103°
2026-05-05 22:14 51.32539 0.44600 19769 ft 362 kts 103°
2026-05-05 22:14 51.31966 0.48521 20064 ft 373 kts 103°
2026-05-05 22:14 51.31363 0.52649 20409 ft 382 kts 103°
2026-05-05 22:15 51.30745 0.56835 20677 ft 393 kts 103°
2026-05-05 22:15 51.30121 0.61072 21001 ft 401 kts 103°
2026-05-05 22:15 51.29403 0.65427 21418 ft 408 kts 106°
2026-05-05 22:15 51.28582 0.69804 21851 ft 413 kts 107°
2026-05-05 22:16 51.27723 0.74207 22282 ft 418 kts 107°
2026-05-05 22:16 51.26854 0.78666 22721 ft 422 kts 107°
2026-05-05 22:16 51.25991 0.83163 23202 ft 426 kts 107°
2026-05-05 22:16 51.25134 0.87701 23643 ft 429 kts 107°
2026-05-05 22:17 51.24278 0.92285 24010 ft 432 kts 106°
2026-05-05 22:17 51.23421 0.96907 24407 ft 434 kts 107°
2026-05-05 22:17 51.22571 1.01501 24993 ft 431 kts 107°
2026-05-05 22:17 51.21716 1.06102 25391 ft 434 kts 107°
2026-05-05 22:18 51.20854 1.10722 25744 ft 437 kts 107°
2026-05-05 22:18 51.19981 1.15385 26090 ft 440 kts 108°
2026-05-05 22:18 51.19101 1.20074 26442 ft 442 kts 108°
2026-05-05 22:18 51.18215 1.24785 26807 ft 445 kts 108°
2026-05-05 22:19 51.17322 1.29519 27136 ft 447 kts 108°
2026-05-05 22:19 51.16504 1.34322 27450 ft 450 kts 103°
2026-05-05 22:19 51.16020 1.39252 27792 ft 453 kts 97°
2026-05-05 22:19 51.15703 1.44252 28158 ft 454 kts 96°
2026-05-05 22:20 51.15445 1.49195 28667 ft 452 kts 96°
2026-05-05 22:20 51.15208 1.54195 29062 ft 453 kts 96°
2026-05-05 22:20 51.14976 1.59208 29327 ft 456 kts 96°
2026-05-05 22:20 51.14740 1.64256 29595 ft 458 kts 97°
2026-05-05 22:21 51.14498 1.69322 29946 ft 459 kts 97°
2026-05-05 22:21 51.14248 1.74410 30152 ft 462 kts 97°
2026-05-05 22:21 51.13993 1.79520 30430 ft 463 kts 97°
2026-05-05 22:21 51.13733 1.84625 30705 ft 464 kts 97°
2026-05-05 22:22 51.13469 1.89743 30982 ft 464 kts 97°
2026-05-05 22:22 51.13205 1.94855 31434 ft 460 kts 97°
2026-05-05 22:22 51.12940 1.99913 31819 ft 459 kts 98°
2026-05-05 22:22 51.12675 2.04989 32100 ft 459 kts 98°
2026-05-05 22:23 51.12407 2.10039 32423 ft 458 kts 98°
2026-05-05 22:23 51.12135 2.15078 32710 ft 457 kts 98°
2026-05-05 22:23 51.11860 2.20115 33044 ft 457 kts 98°
2026-05-05 22:23 51.11584 2.25149 33352 ft 456 kts 98°
2026-05-05 22:24 51.11306 2.30178 33626 ft 455 kts 98°
2026-05-05 22:24 51.11029 2.35190 33926 ft 454 kts 98°
2026-05-05 22:24 51.10750 2.40192 34152 ft 454 kts 98°
2026-05-05 22:24 51.10469 2.45204 34321 ft 455 kts 98°
2026-05-05 22:25 51.10186 2.50224 34498 ft 456 kts 98°
2026-05-05 22:25 51.09899 2.55260 34678 ft 457 kts 98°
2026-05-05 22:25 51.09610 2.60297 34853 ft 458 kts 98°
2026-05-05 22:25 51.09162 2.65297 35066 ft 456 kts 105°
2026-05-05 22:26 51.08416 2.70140 35200 ft 456 kts 108°
2026-05-05 22:26 51.07582 2.75013 35364 ft 457 kts 109°
2026-05-05 22:26 51.06713 2.79859 35533 ft 457 kts 109°
2026-05-05 22:26 51.05821 2.84727 35679 ft 458 kts 109°
2026-05-05 22:27 51.04922 2.89597 35884 ft 458 kts 109°
2026-05-05 22:27 51.04029 2.94437 36051 ft 459 kts 109°
2026-05-05 22:27 51.03130 2.99311 36197 ft 460 kts 109°
2026-05-05 22:27 51.02232 3.04190 36342 ft 461 kts 109°
2026-05-05 22:28 51.01331 3.09084 36489 ft 461 kts 109°
2026-05-05 22:28 51.00426 3.13989 36635 ft 462 kts 109°
2026-05-05 22:28 50.99520 3.18891 36780 ft 463 kts 109°
2026-05-05 22:28 50.98613 3.23789 36926 ft 464 kts 109°
2026-05-05 22:29 50.97711 3.28641 37061 ft 465 kts 109°
2026-05-05 22:29 50.96795 3.33559 37203 ft 465 kts 109°
2026-05-05 22:29 50.95876 3.38484 37357 ft 465 kts 109°
2026-05-05 22:29 50.94953 3.43410 37486 ft 466 kts 109°
2026-05-05 22:30 50.94029 3.48327 37615 ft 467 kts 109°
2026-05-05 22:30 50.93099 3.53267 37748 ft 468 kts 109°
2026-05-05 22:30 50.92166 3.58210 37877 ft 468 kts 109°
2026-05-05 22:30 50.91230 3.63153 38020 ft 469 kts 109°
2026-05-05 22:31 50.90291 3.68107 38141 ft 469 kts 110°
2026-05-05 22:31 50.89342 3.73061 38275 ft 470 kts 110°
2026-05-05 22:31 50.88383 3.78022 38389 ft 470 kts 110°
2026-05-05 22:31 50.87421 3.82977 38537 ft 471 kts 110°
2026-05-05 22:32 50.86457 3.87929 38645 ft 471 kts 110°
2026-05-05 22:32 50.85492 3.92881 38754 ft 471 kts 110°
2026-05-05 22:32 50.84525 3.97836 38847 ft 472 kts 110°
2026-05-05 22:33 50.82577 4.07783 38879 ft 473 kts 110°
2026-05-05 22:33 50.80632 4.17677 38878 ft 471 kts 110°
2026-05-05 22:34 50.78691 4.27503 38878 ft 471 kts 110°
2026-05-05 22:34 50.76726 4.37389 38881 ft 471 kts 110°
2026-05-05 22:35 50.74755 4.47260 38880 ft 472 kts 110°
2026-05-05 22:35 50.72774 4.57125 38882 ft 471 kts 111°
2026-05-05 22:36 50.70812 4.66995 38871 ft 472 kts 110°
2026-05-05 22:36 50.68906 4.76878 38870 ft 470 kts 110°
2026-05-05 22:37 50.67001 4.86728 38861 ft 469 kts 110°
2026-05-05 22:37 50.65085 4.96497 38858 ft 469 kts 111°
2026-05-05 22:38 50.63074 5.06268 38853 ft 469 kts 111°
2026-05-05 22:38 50.61035 5.16039 38856 ft 469 kts 111°
2026-05-05 22:39 50.59004 5.25790 38852 ft 469 kts 111°
2026-05-05 22:39 50.56976 5.35523 38851 ft 468 kts 111°
2026-05-05 22:40 50.54940 5.45258 38848 ft 468 kts 111°
2026-05-05 22:40 50.52893 5.54995 38846 ft 468 kts 111°
2026-05-05 22:41 50.50849 5.64699 38839 ft 468 kts 111°
2026-05-05 22:41 50.49026 5.74537 38843 ft 470 kts 108°
2026-05-05 22:42 50.47299 5.84452 38839 ft 470 kts 109°
2026-05-05 22:42 50.45536 5.94327 38830 ft 470 kts 109°
2026-05-05 22:43 50.43749 6.04097 38819 ft 470 kts 109°
2026-05-05 22:43 50.41928 6.13947 38813 ft 471 kts 109°
2026-05-05 22:44 50.40094 6.23815 38812 ft 471 kts 109°
2026-05-05 22:44 50.38258 6.33653 38802 ft 471 kts 109°
2026-05-05 22:45 50.36412 6.43500 38801 ft 471 kts 109°
2026-05-05 22:45 50.34558 6.53337 38795 ft 470 kts 110°
2026-05-05 22:46 50.32697 6.63155 38798 ft 470 kts 110°
2026-05-05 22:46 50.30826 6.72976 38795 ft 470 kts 110°
2026-05-05 22:47 50.28961 6.82710 38800 ft 470 kts 110°
2026-05-05 22:47 50.27077 6.92498 38793 ft 470 kts 110°
2026-05-05 22:48 50.25180 7.02305 38801 ft 468 kts 110°
2026-05-05 22:48 50.23301 7.11966 38802 ft 467 kts 110°
2026-05-05 22:49 50.21403 7.21673 38802 ft 467 kts 110°
2026-05-05 22:49 50.19499 7.31368 38800 ft 467 kts 110°
2026-05-05 22:50 50.17585 7.41065 38796 ft 468 kts 110°
2026-05-05 22:50 50.15656 7.50785 38799 ft 470 kts 110°
2026-05-05 22:51 50.13715 7.60518 38797 ft 470 kts 111°
2026-05-05 22:51 50.11764 7.70253 38798 ft 470 kts 111°
2026-05-05 22:52 50.09808 7.79965 38787 ft 470 kts 111°
2026-05-05 22:52 50.07853 7.89625 38795 ft 470 kts 111°
2026-05-05 22:53 50.05868 7.99380 38795 ft 470 kts 111°
2026-05-05 22:53 50.03898 8.09017 38795 ft 470 kts 111°
2026-05-05 22:54 50.01894 8.18775 38796 ft 470 kts 111°
2026-05-05 22:54 49.99913 8.28376 38794 ft 469 kts 112°
2026-05-05 22:55 49.97909 8.38037 38615 ft 470 kts 112°
2026-05-05 22:55 49.96903 8.42862 38177 ft 470 kts 112°
2026-05-05 22:55 49.95897 8.47681 37687 ft 468 kts 112°
2026-05-05 22:55 49.94743 8.52376 37196 ft 462 kts 119°
2026-05-05 22:56 49.93293 8.56782 36725 ft 457 kts 122°
2026-05-05 22:56 49.92285 8.59653 36421 ft 456 kts 122°
2026-05-05 22:56 49.90732 8.63936 35952 ft 454 kts 123°
2026-05-05 22:56 49.89157 8.68187 35511 ft 454 kts 123°
2026-05-05 22:57 49.87577 8.72416 35062 ft 453 kts 123°
2026-05-05 22:57 49.85994 8.76646 34640 ft 452 kts 123°
2026-05-05 22:57 49.84424 8.80845 34218 ft 451 kts 123°
2026-05-05 22:57 49.82847 8.85066 33792 ft 452 kts 123°
2026-05-05 22:58 49.81280 8.89266 33301 ft 451 kts 123°
2026-05-05 22:58 49.79723 8.93435 32824 ft 452 kts 123°
2026-05-05 22:58 49.78150 8.97646 32336 ft 452 kts 122°
2026-05-05 22:58 49.76576 9.01854 31865 ft 453 kts 122°
2026-05-05 22:59 49.75004 9.06053 31385 ft 454 kts 122°
2026-05-05 22:59 49.73419 9.10283 30929 ft 455 kts 122°
2026-05-05 22:59 49.71831 9.14515 30479 ft 454 kts 122°
2026-05-05 22:59 49.70252 9.18715 30034 ft 451 kts 122°
2026-05-05 23:00 49.67119 9.27037 29037 ft 445 kts 122°
2026-05-05 23:00 49.65563 9.31157 28534 ft 442 kts 122°
2026-05-05 23:00 49.64020 9.35234 28025 ft 438 kts 122°
2026-05-05 23:01 49.62466 9.39256 27553 ft 435 kts 125°
2026-05-05 23:01 49.60684 9.42987 27081 ft 430 kts 131°
2026-05-05 23:01 49.58776 9.46526 26594 ft 428 kts 133°
2026-05-05 23:01 49.56831 9.50003 26140 ft 427 kts 134°
2026-05-05 23:02 49.54875 9.53430 25683 ft 425 kts 134°
2026-05-05 23:02 49.52922 9.56824 25243 ft 423 kts 134°
2026-05-05 23:02 49.50971 9.60209 24795 ft 420 kts 134°
2026-05-05 23:02 49.49039 9.63566 24377 ft 418 kts 134°
2026-05-05 23:03 49.47122 9.66900 23954 ft 415 kts 134°
2026-05-05 23:03 49.45215 9.70218 23536 ft 413 kts 134°
2026-05-05 23:03 49.43320 9.73516 23071 ft 410 kts 134°
2026-05-05 23:03 49.41439 9.76790 22575 ft 408 kts 134°
2026-05-05 23:04 49.39562 9.80051 22097 ft 405 kts 135°
2026-05-05 23:04 49.37705 9.83276 21612 ft 403 kts 135°
2026-05-05 23:04 49.35858 9.86483 21146 ft 400 kts 135°
2026-05-05 23:04 49.34009 9.89675 20681 ft 399 kts 135°
2026-05-05 23:05 49.32164 9.92851 20221 ft 397 kts 135°
2026-05-05 23:05 49.30333 9.96000 19778 ft 394 kts 135°
2026-05-05 23:05 49.28517 9.99121 19331 ft 391 kts 135°
2026-05-05 23:05 49.26713 10.02221 18881 ft 388 kts 135°
2026-05-05 23:06 49.24921 10.05296 18461 ft 386 kts 135°
2026-05-05 23:06 49.23159 10.08316 18034 ft 384 kts 135°
2026-05-05 23:06 49.21378 10.11364 17542 ft 383 kts 135°
2026-05-05 23:06 49.19607 10.14393 17070 ft 381 kts 135°
2026-05-05 23:07 49.17850 10.17406 16609 ft 379 kts 135°
2026-05-05 23:07 49.16098 10.20403 16140 ft 377 kts 136°
2026-05-05 23:07 49.14350 10.23387 15673 ft 376 kts 136°
2026-05-05 23:07 49.12596 10.26349 15214 ft 375 kts 137°
2026-05-05 23:08 49.10814 10.29246 14795 ft 373 kts 138°
2026-05-05 23:08 49.09024 10.32097 14360 ft 371 kts 138°
2026-05-05 23:08 49.07239 10.34925 13927 ft 369 kts 138°
2026-05-05 23:08 49.05465 10.37739 13475 ft 367 kts 138°
2026-05-05 23:09 49.03702 10.40544 12992 ft 366 kts 138°
2026-05-05 23:09 49.01950 10.43342 12506 ft 364 kts 138°
2026-05-05 23:09 49.00210 10.46125 12063 ft 361 kts 138°
2026-05-05 23:09 48.98484 10.48895 11611 ft 359 kts 138°
2026-05-05 23:10 48.96771 10.51630 11169 ft 356 kts 139°
2026-05-05 23:10 48.95065 10.54344 10716 ft 353 kts 139°
2026-05-05 23:10 48.93375 10.57037 10268 ft 350 kts 139°
2026-05-05 23:10 48.91697 10.59707 9842 ft 347 kts 139°
2026-05-05 23:11 48.90056 10.62311 9361 ft 344 kts 139°
2026-05-05 23:11 48.88409 10.64919 8897 ft 341 kts 139°
2026-05-05 23:11 48.86771 10.67513 8442 ft 338 kts 139°
2026-05-05 23:11 48.85148 10.70081 7995 ft 335 kts 139°
2026-05-05 23:12 48.83541 10.72622 7526 ft 333 kts 139°
2026-05-05 23:12 48.81938 10.75155 7082 ft 330 kts 139°
2026-05-05 23:12 48.80353 10.77662 6637 ft 327 kts 139°
2026-05-05 23:12 48.78784 10.80140 6171 ft 325 kts 139°
2026-05-05 23:13 48.77221 10.82593 5719 ft 322 kts 139°
2026-05-05 23:13 48.75670 10.85022 5265 ft 320 kts 139°
2026-05-05 23:13 48.74058 10.87288 4929 ft 311 kts 146°
2026-05-05 23:13 48.72404 10.89260 4927 ft 293 kts 147°
2026-05-05 23:14 48.70851 10.91090 4981 ft 274 kts 148°
2026-05-05 23:14 48.69372 10.92822 4884 ft 264 kts 148°
2026-05-05 23:14 48.67937 10.94490 4729 ft 256 kts 148°
2026-05-05 23:14 48.66547 10.96103 4610 ft 248 kts 148°
2026-05-05 23:15 48.65201 10.97662 4471 ft 241 kts 148°
2026-05-05 23:15 48.63887 10.99183 4332 ft 235 kts 149°
2026-05-05 23:15 48.62612 11.00654 4209 ft 224 kts 149°
2026-05-05 23:15 48.61413 11.02046 4110 ft 214 kts 149°
2026-05-05 23:16 48.60248 11.03391 4009 ft 214 kts 149°
2026-05-05 23:16 48.59064 11.04752 3996 ft 214 kts 149°
2026-05-05 23:16 48.57868 11.06125 3991 ft 213 kts 149°
2026-05-05 23:16 48.56703 11.07460 3994 ft 213 kts 149°
2026-05-05 23:17 48.55522 11.08816 3991 ft 213 kts 149°
2026-05-05 23:17 48.54341 11.10170 3993 ft 213 kts 149°
2026-05-05 23:17 48.53160 11.11522 3988 ft 214 kts 150°
2026-05-05 23:17 48.51972 11.12882 3998 ft 214 kts 149°
2026-05-05 23:18 48.50787 11.14239 4013 ft 214 kts 149°
2026-05-05 23:18 48.49604 11.15592 4018 ft 214 kts 149°
2026-05-05 23:18 48.48419 11.16947 4018 ft 214 kts 150°
2026-05-05 23:18 48.47230 11.18304 4020 ft 214 kts 149°
2026-05-05 23:19 48.46047 11.19656 4014 ft 214 kts 149°
2026-05-05 23:19 48.44860 11.21011 4011 ft 214 kts 149°
2026-05-05 23:19 48.43673 11.22365 4016 ft 214 kts 150°
2026-05-05 23:19 48.42487 11.23716 4014 ft 214 kts 150°
2026-05-05 23:20 48.41307 11.25062 4006 ft 208 kts 149°
2026-05-05 23:20 48.40207 11.26330 3987 ft 193 kts 150°
2026-05-05 23:20 48.39142 11.27548 4007 ft 192 kts 150°
2026-05-05 23:20 48.38078 11.28757 4010 ft 192 kts 150°
2026-05-05 23:21 48.37025 11.29950 4013 ft 192 kts 150°
2026-05-05 23:21 48.35964 11.31155 4017 ft 190 kts 150°
2026-05-05 23:21 48.34906 11.32361 4022 ft 192 kts 150°
2026-05-05 23:21 48.33932 11.33763 4015 ft 198 kts 135°
2026-05-05 23:22 48.33363 11.35681 4017 ft 206 kts 105°
2026-05-05 23:22 48.33274 11.37817 4019 ft 206 kts 88°
2026-05-05 23:22 48.33421 11.39957 4021 ft 206 kts 84°
2026-05-05 23:22 48.33588 11.42082 4017 ft 206 kts 84°
2026-05-05 23:23 48.33750 11.44221 4019 ft 205 kts 84°
2026-05-05 23:23 48.33912 11.46346 4017 ft 205 kts 84°
2026-05-05 23:23 48.34078 11.48488 4015 ft 205 kts 84°
2026-05-05 23:23 48.34244 11.50619 4015 ft 206 kts 84°
2026-05-05 23:24 48.34411 11.52753 4021 ft 206 kts 84°
2026-05-05 23:24 48.34575 11.54858 4014 ft 205 kts 84°
2026-05-05 23:24 48.34743 11.57012 4020 ft 204 kts 84°
2026-05-05 23:24 48.34907 11.59123 3855 ft 205 kts 84°
2026-05-05 23:25 48.35075 11.61230 3571 ft 201 kts 84°
2026-05-05 23:25 48.35234 11.63282 3299 ft 194 kts 84°
2026-05-05 23:25 48.35387 11.65274 3055 ft 190 kts 85°
2026-05-05 23:25 48.35539 11.67253 2803 ft 189 kts 85°
2026-05-05 23:26 48.35689 11.69196 2533 ft 186 kts 85°
2026-05-05 23:26 48.35837 11.71108 2282 ft 182 kts 85°
2026-05-05 23:26 48.35981 11.72971 2024 ft 176 kts 85°
2026-05-05 23:26 48.36117 11.74773 1787 ft 171 kts 86°
2026-05-05 23:27 48.36266 11.76536 1577 ft 171 kts 86°
2026-05-05 23:27 48.36383 11.78271 1475 ft 154 kts 79°
2026-05-05 23:27 48.36493 11.79605 1482 ft 102 kts 83°
2026-05-05 23:27 48.36556 11.80398 1478 ft 50 kts 83°
2026-05-05 23:28 48.36552 11.80673 1476 ft 16 kts 100°
2026-05-05 23:28 48.36491 11.80938 1482 ft 29 kts 112°
2026-05-05 23:28 48.36411 11.81208 1477 ft 21 kts 125°
2026-05-05 23:28 48.36299 11.81277 1483 ft 17 kts 170°
2026-05-05 23:29 48.36245 11.81226 1478 ft 9 kts 252°
2026-05-05 23:29 48.36226 11.81060 1481 ft 23 kts 263°
2026-05-05 23:29 48.36210 11.80814 1479 ft 23 kts 264°
2026-05-05 23:29 48.36193 11.80574 1475 ft 23 kts 262°
2026-05-05 23:30 48.36172 11.80339 1486 ft 23 kts 263°
2026-05-05 23:30 48.36155 11.80107 1482 ft 23 kts 263°
2026-05-05 23:30 48.36136 11.79873 1478 ft 22 kts 264°
2026-05-05 23:30 48.36118 11.79641 1484 ft 22 kts 263°
2026-05-05 23:31 48.36102 11.79411 1481 ft 21 kts 264°
2026-05-05 23:31 48.36044 11.79328 1474 ft 8 kts 181°
2026-05-05 23:31 48.35943 11.79346 1486 ft 16 kts 165°
2026-05-05 23:31 48.35835 11.79386 1481 ft 12 kts 171°
2026-05-05 23:32 48.35807 11.79391 1478 ft 10 kts 174°
2026-05-05 23:32 48.35715 11.79407 1476 ft 16 kts 173°
2026-05-05 23:32 48.35629 11.79415 1480 ft 7 kts 194°
2026-05-05 23:32 48.35601 11.79339 1477 ft 9 kts 257°
2026-05-05 23:33 48.35596 11.79284 1482 ft 0 kts 263°